Tracking 30703 objects as of 14-Jun-2025
HD Live streaming from Space Station
objects crossing your sky now

STARLINK-4725

Track STARLINK-4725 now!
10-day predictions
STARLINK-4725 is classified as:


NORAD ID: 53700
Int'l Code: 2022-107A
Perigee: 545.9 km
Apogee: 547.9 km
Inclination: 53.2 °
Period: 95.4 minutes
Semi major axis: 6917 km
RCS: Unknown
Launch date: September 5, 2022
Source: United States (US)
Launch site: AIR FORCE EASTERN TEST RANGE (AFETR)
Your satellite tracking list
Your tracking list is empty




NASA's NSSDC Master Catalog

Two Line Element Set (TLE):
1 53700U 22107A   25164.85124806  .00000197  00000-0  30440-4 0  9991
2 53700  53.2181  10.6068 0001401  96.3038 263.8114 15.08840504154272
Source of the keplerian elements: AFSPC